Regional Weather Roundup
Issued by NWS

Home | Current Version | Previous Version | Text Only | Print | Product List | Glossary Off
Versions: 1 2 3 4 5 6 7 8 9 10 11 12 13 14 15 16 17 18 19 20 21 22 23 24 25 26 27 28 29 30 31 32 33 34 35 36 37 38 39 40 41 42 43 44 45 46 47 48 49 50

000
ASUS43 KLOT 180203
RWRIL

ILLINOIS REGIONAL WEATHER ROUNDUP
NATIONAL WEATHER SERVICE CHICAGO/ROMEOVILLE IL
900 PM CDT THU AUG 17 2017

NOTE: "FAIR" INDICATES FEW OR NO CLOUDS BELOW 12,000 FEET WITH NO
SIGNIFICANT WEATHER AND/OR OBSTRUCTIONS TO VISIBILITY.

* THESE STATIONS ARE NOT UNDER NWS QUALITY CONTROL. THEY ALSO MAY NOT
  REPORT WEATHER SUCH AS PRECIPITATION OR FOG.

ILZ001-002-007-009-015-016-024-180300-
NORTHWEST ILLINOIS

CITY           SKY/WX    TMP DP  RH WIND       PRES   REMARKS
MOLINE         CLOUDY    76  64  66 W10       29.82R
SAVANNA*       MOCLDY    73  64  73 W8        29.80R
$$

ILZ003-004-008-010-011-017-018-180300-
NORTH CENTRAL ILLINOIS

CITY           SKY/WX    TMP DP  RH WIND       PRES   REMARKS
ROCKFORD       CLOUDY    73  63  70 W9        29.80R
FREEPORT*      CLOUDY    71  63  77 W8        29.81R
ROCHELLE*      CLOUDY    73  65  78 W13       29.81R
PERU*          MOCLDY    71  64  77 W9        29.82R
$$

ILZ005-006-012>014-019>023-180300-
NORTHEAST ILLINOIS

CITY           SKY/WX    TMP DP  RH WIND       PRES   REMARKS
CHICAGO-OHARE  MOCLDY    77  63  61 W16G29    29.76R
CHICAGO-MIDWAY MOCLDY    79  64  60 W15G28    29.77R HX  81
AURORA         CLOUDY    74  66  76 W10       29.80R
LANSING*       CLOUDY    76  65  68 SW8       29.78R
JOLIET*        CLOUDY    78  67  70 W7        29.80R
WAUKEGAN       PTCLDY    71  66  84 VRB7      29.73R
DUPAGE AIRPORT CLOUDY    75  65  70 W13G23    29.78R
KANKAKEE*      MOCLDY    75  68  78 W8        29.82R
WHEELING       CLOUDY    76  65  68 W14G23    29.77R
MORRIS*        MOCLDY    73  66  77 W9        29.80R
NORTHERLY ISL    N/A     79  63  57 SW13        N/A  HX  80
$$

LMZ740>746-180300-
SOUTHERN LAKE MICHIGAN

STATION/POSITION SKY/WX   TEMP    WIND        PRES    VSBY  WAVE
                          AIR SEA DIR/SP/G                  HT/PER
                          (F)     (DEG/KT/KT) (MB)    (MI)  (FT/S)
SOUTHERN BUOY              73 71  300/ 12/ 16 1005.4          3/ 5
WILMETTE HARBOR            77 73  250/ 16/ 23   N/A           2/ 3
HARRISON CRIB              80     250/ 19/ 22   N/A
CALUMET HARBOR             79     220/  9/ 15 1007.3R
BURNS HARBOR               78     210/ 13/ 19 1008.5R
MICHIGAN CITY              77     200/ 16/ 18   N/A
MICHIGAN CITY 6N           77 74  230/ 16/ 19   N/A           3/ 4
ST. JOSEPH                 76 74  240/ 14/ 17 1007.1R         4/ 4
$$

ILZ025>027-034>036-040-047-049-050-058-095>099-180300-
WEST-CENTRAL ILLINOIS

CITY           SKY/WX    TMP DP  RH WIND       PRES   REMARKS
QUINCY         CLEAR     73  60  63 W7        29.87R
GALESBURG*     CLEAR     69  63  79 W3        29.86R
MACOMB*        PTCLDY    70  65  83 NW3       29.88R
JACKSONVILLE*  CLEAR     71  65  83 SW6       29.86R
PITTSFIELD*    PTCLDY    74  63  69 SW6       29.88R
$$

ILZ028>032-037-038-041>044-048-051>054-059>061-180300-
CENTRAL ILLINOIS

CITY           SKY/WX    TMP DP  RH WIND       PRES   REMARKS
PONTIAC        MOCLDY    73  67  80 W9        29.84R
BLOOMINGTON    MOCLDY    75  67  76 W16       29.86R
DECATUR        CLEAR     75  66  73 SW8       29.86R
PEORIA         PTCLDY    75  62  64 NW6       29.85R
LACON*         CLEAR     74  63  70 W5        29.83R
LINCOLN*       PTCLDY    76  67  73 SW3       29.85R
SPRINGFIELD    PTCLDY    75  67  76 SW5       29.86R
TAYLORVILLE    CLEAR     71  67  89 SW5       29.87R
$$

ILZ033-039-045-046-055>057-062-063-180300-
EAST-CENTRAL ILLINOIS

CITY           SKY/WX    TMP DP  RH WIND       PRES   REMARKS
CHAMPAIGN      CLEAR     68  65  90 SW6       29.86R
RANTOUL*       CLEAR     74  69  82 SW6       29.85R
MATTOON        CLOUDY    75  68  78 VRB5      29.86R
PARIS*         MOCLDY    73  68  83 W7        29.86R
$$

ILZ079-100>102-180300-
SOUTHWEST ILLINOIS

CITY           SKY/WX    TMP DP  RH WIND       PRES   REMARKS
ALTON          PTCLDY    73  66  78 W7        29.89R
BELLEVILLE     CLEAR     77  65  64 W8        29.89R
CAHOKIA*       CLEAR     78  64  61 W6        29.89R HX  80
SPARTA*        PTCLDY    76  68  77 W5        29.91R
$$

ILZ064>066-069>071-074>076-080>082-084>086-088>090-092>094-180300-
SOUTH-CENTRAL ILLINOIS

CITY           SKY/WX    TMP DP  RH WIND       PRES   REMARKS
CARBONDALE     CLOUDY    76  74  93 W6        29.88R
CAIRO*         CLOUDY    76  73  88 CALM      29.90R
EFFINGHAM*     MOCLDY    75  69  80 SW3       29.89R
MARION         CLOUDY    77  77 100 S5        29.89S
MT. VERNON     PTCLDY    77  73  87 SW7       29.88R
CENTRALIA*     CLOUDY    75  71  88 W3        29.88R
SALEM*         PTCLDY    76  69  80 W3        29.88R
METROPOLIS*    CLOUDY    78  73  82 SW6       29.91R HX  81
$$

ILZ067-068-072-073-078-083-087-091-180300-
SOUTHEAST ILLINOIS

CITY           SKY/WX    TMP DP  RH WIND       PRES   REMARKS
LAWRENCEVILLE  PTCLDY    77  70  79 W5        29.86R
FLORA*         CLOUDY    79  73  80 W6        29.87R HX  82
FAIRFIELD*     MOCLDY    77  73  86 SW3       29.86R
HARRISBURG*    CLOUDY    77  73  86 CALM      29.89R
ROBINSON*      CLEAR     70  69  95 CALM      29.86S
CARMI*         CLOUDY    75  72  91 SW6       29.87S
$$

ABBREVIATIONS USED IN REMARKS
   TC - TEMPERATURE IN CELSIUS
  WCI - WIND CHILL INDEX
   HX - HEAT INDEX
  VSB - VISIBILITY
$$




USA.gov is the U.S. government's official web portal to all federal, state and local government web resources and services.